Flag for U.S.A. Weather past 2 weeks in Greenville, South Carolina, U.S.A.

Now
89 °F

Scattered clouds.


Feels Like: 91 °F
Forecast: 67 / 89 °F
Wind: 10 mph from Southwest

Location: Greenville Downtown Airport

Current Time: Jul 7, 2015 at 4:05:50 PM

Latest Report: Jul 7, 2015 at 2:53 PM


Visibility: 10 mi

Pressure: 30.10 "Hg

Humidity: 45%

Dew point: 65 °F

Location of GreenvilleLocation

Historic Weather in Greenville — Graph

°F

Greenville temperature yesterday

Maximum temperature yesterday: 87 °F (at 2:53 PM)
Minimum temperature yesterday: 68 °F (at 5:53 AM)
Average temperature yesterday: 78 °F

Past Weeks' High & Low Weather Summary

 TemperatureHumidityPressure
High96 °F (Jun 26, 3:53 PM)91% (Jul 3, 6:53 AM)30.15 "Hg (Jul 3, 6:53 AM)
Low64 °F (Jun 29, 5:53 AM)31% (Jun 26, 3:53 PM)29.79 "Hg (Jun 27, 2:53 PM)
Average78 °F66%29.99 "Hg
* Reported Jun 22 2:53 PM — Jul 7 2:53 PM, Greenville, Weather by CustomWeather, © 2015

Note: Actual official high and low records may vary slightly from our data, if they occured in-between our weather recording intervals... More about our weather records

Advertising

Greenville weather history for previous 24 hours

 ConditionsComfort  
Time TempWeatherWind HumidityBarometerVisibility
2:53 PM
Tue, Jul 7
89 °FScattered clouds.10 mph45%30.10 "Hg10 mi
1:53 PM89 °FScattered clouds.8 mph45%30.11 "Hg10 mi
12:53 PM87 °FSunny.6 mph50%30.13 "Hg10 mi
11:53 AM85 °FSunny.5 mph53%30.14 "Hg10 mi
10:53 AM84 °FSunny.3 mph55%30.14 "Hg10 mi
9:53 AM81 °FSunny.No wind62%30.14 "Hg10 mi
8:53 AM76 °FSunny.3 mph74%30.13 "Hg10 mi
7:53 AM71 °FSunny.No wind84%30.13 "Hg10 mi
6:53 AM69 °FClear.No wind90%30.11 "Hg10 mi
5:53 AM71 °FClear.No wind84%30.09 "Hg10 mi
4:53 AM71 °FClear.3 mph84%30.08 "Hg10 mi
3:53 AM72 °FClear.No wind81%30.09 "Hg10 mi
2:53 AM73 °FClear.No wind81%30.08 "Hg10 mi
1:53 AM74 °FClear.3 mph79%30.09 "Hg10 mi
12:53 AM74 °FClear.5 mph79%30.09 "Hg10 mi
11:53 PM
Mon, Jul 6
75 °FClear.6 mph79%30.08 "Hg10 mi
10:53 PM78 °FClear.No wind71%30.08 "Hg10 mi
9:53 PM79 °FClear.3 mph69%30.07 "Hg10 mi
8:53 PM80 °FSunny.7 mph64%30.07 "Hg10 mi
7:53 PM82 °FSunny.7 mph56%30.06 "Hg10 mi
6:53 PM84 °FSunny.9 mph53%30.06 "Hg10 mi
5:53 PM87 °FPassing clouds.13 mph46%30.06 "Hg10 mi
4:53 PM86 °FPassing clouds.10 mph49%30.07 "Hg10 mi
Weather by CustomWeather, © 2015

See weather overviewHow to use our weather pages